Regional Weather Roundup
Issued by NWS Cleveland, OH

Home | Current Version | Previous Version | Graphics & Text | Print | Product List | Glossary On
Versions: 1 2 3 4 5 6 7 8 9 10 11 12 13 14 15 16 17 18 19 20 21 22 23 24 25 26 27 28 29 30 31 32 33 34 35 36 37 38 39 40 41 42 43 44 45 46 47 48 49 50
000
ASUS41 KCLE 262302
RWRCLE
OHIO REGIONAL WEATHER ROUNDUP
NATIONAL WEATHER SERVICE CLEVELAND, OH
600 PM EST THU FEB 26 2015

NOTE: "FAIR" INDICATES FEW OR NO CLOUDS BELOW 12,000 FEET WITH NO
SIGNIFICANT WEATHER AND/OR OBSTRUCTIONS TO VISIBILITY.

OHZ001>008-015>018-024>027-034-035-043-044-270000-
   NORTHWEST OHIO

CITY           SKY/WX    TMP DP  RH WIND       PRES   REMARKS
DEFIANCE       CLOUDY    16   8  71 N7        30.23R WCI   6
FINDLAY        CLOUDY    14   4  64 NE7       30.20R WCI   4
TOLEDO EXPRESS PTCLDY    13   3  64 N8        30.22R WCI   2
TOLEDO EXEC    CLOUDY    14   6  70 NW12      30.23R WCI   0
LIMA           CLOUDY    13   4  67 N9        30.19R WCI   1
$$

OHZ009>014-019>023-028>033-038-089-270000-
   NORTHEAST OHIO

CITY           SKY/WX    TMP DP  RH WIND       PRES   REMARKS
CLE-HOPKINS    MOCLDY    11   3  70 N15       30.20R WCI  -5
CLE-LAKEFRONT  MOCLDY    12   3  67 N12       30.19R WCI  -2
CUY CO. ARPT   MOCLDY    12   7  79 N14       30.16R WCI  -3
LORAIN-ELYRIA  CLOUDY    10   3  73 N13       30.18R WCI  -5
ASHTABULA      LGT SNOW  10   3  73 N9        30.13R WCI  -3
AKRON-CANTON   CLOUDY    13   4  67 N13       30.09R HAZE    WCI  -2
WOOSTER        CLOUDY    10   2  69 N13       30.13R WCI  -5
MANSFIELD      CLOUDY    10   2  69 N12       30.13R WCI  -5
YOUNGSTOWN     LGT SNOW  11   4  73 N12       30.08R WCI  -3
$$

OHZ042-051>053-060>062-070>072-077>081-270000-
  SOUTHWEST OHIO

CITY           SKY/WX    TMP DP  RH WIND       PRES   REMARKS
CINC-COVINGTON LGT SNOW  19  11  70 N16       30.17R WCI   4
CINC-LUNKEN    LGT SNOW  19  11  70 N15G21    30.22R WCI   5
HAMILTON       CLOUDY    17   9  70 N13       30.21R HAZE    WCI   4
DAYTON         LGT SNOW  15   6  67 N12       30.18R WCI   2
WRIGHT-PAT AFB FLURRIES  15   6  67 N10       30.19R WCI   2
DAYTON GENERAL LGT SNOW  16   8  71 N13       30.16R WCI   2
WILMINGTON     LGT SNOW  15   7  70 N14       30.14R WCI   0
$$

OHZ036-037-039>041-045>050-054>059-063>069-073>076-082>088-270000-
  CENTRAL AND SOUTHEAST OHIO

CITY           SKY/WX    TMP DP  RH WIND       PRES   REMARKS
COLUMBUS       CLOUDY    15   5  64 N15       30.15R WCI   0
OSU AIRPORT    CLOUDY    14   5  67 N16       30.16R WCI  -2
BOLTON FIELD   PTCLDY    14   7  73 NW15      30.16R WCI  -1
RICKENBACK AFB CLOUDY    17   8  66 N14       30.15R WCI   3
NEWARK         CLOUDY    19   7  59 N7        30.12R WCI  10
MARION         FLURRIES  12   4  70 N12       30.18R WCI  -2
LANCASTER      CLOUDY    19   8  62 N10       30.13R WCI   7
ZANESVILLE     CLOUDY    18   8  65 N7        30.11R WCI   9
NEW PHILLY     LGT SNOW  18   7  62 N10       30.11R WCI   6
$$



USA.gov is the U.S. government's official web portal to all federal, state and local government web resources and services.